Home   Weather   New Fairfield   Past weeks
Flag for USA

Past Weather in New Fairfield, Connecticut, USA — Yesterday and Last 2 Weeks

Now
25 °F

Sunny.


Feels Like: 25 °F
Forecast: 36 / 14 °F
Wind: No wind

Location: Danbury Municipal Airport

Current Time: Dec 8, 2019 at 11:10:16 am

Latest Report: Dec 8, 2019 at 9:53 am


Visibility: 10 mi

Pressure: 30.54 "Hg

Humidity: 72%

Dew Point: 17 °F

Location of New FairfieldLocation

Past Weather in New Fairfield — Graph

°F

New Fairfield Temperature Yesterday

Maximum temperature yesterday: 34 °F (at 1:53 pm)
Minimum temperature yesterday: 16 °F (at 11:53 pm)
Average temperature yesterday: 27 °F

High & Low Weather Summary for the Past Weeks

 TemperatureHumidityPressure
High60 °F (Nov 26, 1:53 pm)100% (Nov 26, 6:53 am)30.56 "Hg (Nov 26, 6:53 am)
Low12 °F (Dec 8, 6:53 am)25% (Nov 30, 1:53 pm)29.23 "Hg (Nov 24, 11:34 am)
Average34 °F73%29.83 "Hg
* Reported Nov 23 8:53 am — Dec 8 8:53 am, New Fairfield. Weather by CustomWeather, © 2019

Note: Actual official high and low records may vary slightly from our data, if they occured in-between our weather recording intervals... More about our weather records

New Fairfield Weather History for the Previous 24 Hours

Scroll right to see more
 ConditionsComfort  
Time TempWeatherWind HumidityBarometerVisibility
8:53 am
Sun, Dec 8
20 °FSunny.No wind85%30.55 "Hg10 mi
7:53 am14 °FSunny.3 mph87%30.56 "Hg10 mi
6:53 am12 °FClear.No wind88%30.55 "Hg10 mi
5:53 am13 °FClear.No wind84%30.55 "Hg10 mi
4:53 am15 °FClear.No wind83%30.53 "Hg10 mi
3:53 am13 °FClear.3 mph88%30.52 "Hg10 mi
2:53 am15 °FClear.No wind83%30.53 "Hg10 mi
1:53 am16 °FClear.No wind84%30.52 "Hg10 mi
12:53 am16 °FClear.No wind84%30.51 "Hg10 mi
11:53 pm
Sat, Dec 7
16 °FClear.No wind84%30.52 "Hg10 mi
10:53 pm22 °FClear.No wind68%30.50 "Hg10 mi
9:53 pm20 °FClear.No wind78%30.49 "Hg10 mi
8:53 pm20 °FClear.No wind78%30.48 "Hg10 mi
7:53 pm23 °FClear.No wind68%30.47 "Hg10 mi
6:53 pm29 °FClear.3 mph51%30.44 "Hg10 mi
5:53 pm29 °FClear.3 mph58%30.42 "Hg10 mi
4:53 pm29 °FPassing clouds.No wind58%30.40 "Hg10 mi
3:53 pm33 °FSunny.8 mph48%30.37 "Hg10 mi
2:53 pm34 °FPassing clouds.8 mph48%30.35 "Hg10 mi
1:53 pm34 °FPartly sunny.12 mph48%30.35 "Hg10 mi
12:53 pm32 °FScattered clouds.9 mph47%30.35 "Hg10 mi
11:53 am32 °FPartly sunny.9 mph52%30.35 "Hg10 mi
Weather by CustomWeather, © 2019

See weather overview

Advertising